This demonstration page uses our WeatherBlox Daily Observations layout. Learn more.

Left ArrowRight Arrow

Hourly Observations for July 14, 2017

Temp ( °F °C ) Dew Point ( °F °C ) Humidity (%) Winds ( mph kmh ) Pressure ( in mb ) Visibility ( mi km ) Precip ( " mm )
12:21 am 00:21 Partly Cloudy 73 22.8 68 20 84 84 E 5 7 30.09 1019 7 11 0.00 0.00
12:53 am 00:53 Clear with Mist and Fog 71 21.7 67 19.4 87 87 E 5 7 30.14 1021 6 10 0.00 0.00
1:17 am 01:17 Mostly Cloudy with Mist and Fog 72 22 68 20 88 88 E 3 6 30.09 1019 6 10 0.00 0.00
1:53 am 01:53 Partly Cloudy with Mist and Fog 70 21.1 67 19.4 90 90 E 5 7 30.13 1020 5 8 0.00 0.00
2:45 am 02:45 Mostly Cloudy with Mist and Fog 70 21.1 67 19.4 90 90 Calm 30.09 1019 5 8 0.00 0.00
2:53 am 02:53 Mostly Cloudy with Mist and Fog 70 21.1 67 19.4 90 90 E 3 6 30.13 1020 5 8 0.00 0.00
3:53 am 03:53 Cloudy 72 22.2 68 20 87 87 SE 5 7 30.13 1020 9 14 0.00 0.00
4:53 am 04:53 Partly Cloudy 70 21.1 67 19.4 90 90 SE 5 7 30.13 1020 7 11 0.00 0.00
5:09 am 05:09 Mostly Cloudy 71 21.7 68 20 90 90 ESE 5 7 30.09 1019 7 11 0.00 0.00
5:53 am 05:53 Cloudy 71 21.7 68 20 90 90 ESE 3 6 30.13 1020 8 13 0.00 0.00
6:53 am 06:53 Cloudy 72 22.2 69 20.6 91 91 SE 8 13 30.14 1021 9 14 0.00 0.00
7:19 am 07:19 Partly Cloudy 73 22.8 69 20.6 87 87 ESE 6 9 30.09 1019 10 16 0.00 0.00
7:53 am 07:53 Sunny 74 23.3 70 21.1 88 88 ESE 6 9 30.14 1021 10 16 0.00 0.00
8:53 am 08:53 Mostly Sunny 76 24.4 70 21.1 82 82 SE 6 9 30.16 1021 10 16 0.00 0.00
9:19 am 09:19 Mostly Cloudy 77 25 70 21.1 79 79 E 7 11 30.09 1019 10 16 0.00 0.00
9:53 am 09:53 Cloudy 77 25 70 21.1 79 79 E 6 9 30.16 1021 10 16 0.00 0.00
10:12 am 10:12 Cloudy 79 26 70 21 74 74 undefined N/A 30.09 1019 10 16 0.00 0.00
10:41 am 10:41 Mostly Cloudy 78 25.6 70 21.1 76 76 ENE 6 9 30.09 1019 10 16 0.00 0.00
10:53 am 10:53 Mostly Cloudy 78 25.6 69 20.6 74 74 ENE 6 9 30.16 1022 10 16 0.00 0.00
11:53 am 11:53 Partly Cloudy 80 26.7 70 21.1 71 71 E 9 15 30.17 1022 10 16 0.00 0.00
12:15 pm 12:15 Mostly Cloudy 81 27.2 68 20 65 65 E 8 13 30.09 1019 10 16 0.00 0.00
12:34 pm 12:34 Partly Cloudy 82 28 70 21 66 66 E 9 15 30.09 1019 10 16 0.00 0.00
12:53 pm 12:53 Mostly Sunny 83 28.3 69 20.6 63 63 SE 7 11 30.16 1021 10 16 0.00 0.00
1:53 pm 13:53 Mostly Sunny 85 29.4 67 19.4 55 55 SSE 8 13 30.15 1021 10 16 0.00 0.00
2:53 pm 14:53 Sunny 87 30.6 68 20 53 53 SSE 9 15 30.13 1020 10 16 0.00 0.00
3:53 pm 15:53 Sunny 87 30.6 68 20 53 53 SSE 10 17 30.12 1020 10 16 0.00 0.00
4:53 pm 16:53 Sunny 87 30.6 66 18.9 50 50 SSE 10 17 30.11 1020 10 16 0.00 0.00
5:53 pm 17:53 Sunny 87 30.6 65 18.3 48 48 S 7 11 30.09 1019 10 16 0.00 0.00
6:53 pm 18:53 Sunny 86 30 65 18.3 49 49 S 7 11 30.09 1019 10 16 0.00 0.00
7:53 pm 19:53 Sunny 85 29.4 65 18.3 51 51 SE 6 9 30.09 1019 10 16 0.00 0.00
8:53 pm 20:53 Sunny 81 27.2 68 20 65 65 SE 6 9 30.10 1019 10 16 0.00 0.00
9:53 pm 21:53 Clear 79 26.1 69 20.6 72 72 ESE 7 11 30.11 1020 10 16 0.00 0.00
10:53 pm 22:53 Clear 78 25.6 68 20 71 71 ESE 7 11 30.13 1020 10 16 0.00 0.00
11:53 pm 23:53 Clear 77 25 68 20 74 74 SE 7 11 30.13 1020 10 16 0.00 0.00

Powered by AerisWeather